Weather History for Brookings, OR

Change the Weather History Date:

Wednesday, October 3, 2012

  Actual Average Record
Temperature  
Mean Temperature 72 °F -  
Max Temperature 86 °F 67 °F 94 °F (1985)
Min Temperature 55 °F 50 °F 41 °F (1931)
Cooling Degree Days 6    
Growing Degree Days 22 (Base 50)    
Moisture  
Dew Point 27 °F    
Average Humidity 27    
Maximum Humidity 77    
Minimum Humidity 5    
Precipitation  
Precipitation 0.00 in - - ()
Sea Level Pressure  
Sea Level Pressure 29.89 in    
Wind  
Wind Speed 5 mph (SW)    
Max Wind Speed 10 mph    
Max Gust Speed -    
Visibility 9 miles    
Events      
Averages and records for this station are not official NWS values.
T = Trace of Precipitation, MM = Missing Value Source: NWS Daily Summary

Daily Weather History Graph

Daily Weather History Graph

Search for Another Location

Airport:

Trip Planner

Search our weather history database for the weather conditions in past years. The results will help you decide how hot, cold, wet, or windy it might be!

Date:

Astronomy

Oct. 03, 2012 Rise Set
Actual Time 7:16 AM PDT 6:54 PM PDT
Civil Twilight 6:49 AM PDT 7:22 PM PDT
Nautical Twilight 6:16 AM PDT 7:54 PM PDT
Astronomical Twilight 5:43 AM PDT 8:27 PM PDT
Moon 8:46 PM PDT (10/3) 10:49 AM PDT (10/3)
Length of Visible Light 12h 33m
Length of Day
11h 37m
Waning Gibbous, 88% of the Moon is Illuminated
Oct 3
Waning Gibbous
Oct 8
Last Quarter
Oct 15
New
Oct 21
First Quarter
Oct 29
Full

Hourly Weather History & Observations

Time (PDT) Temp. Dew Point Humidity Pressure Visibility Wind Dir Wind Speed Gust Speed Precip Events Conditions
12:56 AM 75.9 °F 5.0 °F 6% 29.92 in 10.0 mi NNE 6.9 mph - N/A   Clear
1:56 AM 77.0 °F -0.9 °F 5% 29.91 in 10.0 mi NNE 8.1 mph - N/A   Clear
2:56 AM 75.9 °F 1.0 °F 5% 29.91 in 10.0 mi Variable 4.6 mph - N/A   Clear
3:56 AM 75.9 °F 2.1 °F 6% 29.90 in 10.0 mi Variable 6.9 mph - N/A   Clear
4:56 AM 68.9 °F 6.1 °F 9% 29.89 in 10.0 mi Variable 3.5 mph - N/A   Clear
5:56 AM 72.0 °F 9.1 °F 9% 29.89 in 10.0 mi Variable 5.8 mph - N/A   Clear
6:56 AM 65.8 °F 18.1 °F 16% 29.89 in 10.0 mi Calm Calm - N/A   Clear
7:56 AM 61.0 °F 26.1 °F 26% 29.90 in 9.0 mi North 3.5 mph - N/A   Clear
8:56 AM 64.9 °F 31.1 °F 28% 29.90 in 5.0 mi Variable 3.5 mph - N/A   Haze
9:56 AM 74.8 °F 34.9 °F 23% 29.90 in 8.0 mi Calm Calm - N/A   Clear
10:56 AM 81.0 °F 34.0 °F 18% 29.89 in 10.0 mi WNW 4.6 mph - N/A   Clear
12:56 PM 86.9 °F 12.0 °F 6% 29.88 in 10.0 mi WNW 3.5 mph - N/A   Clear
1:56 PM 86.9 °F 27.1 °F 11% 29.86 in 10.0 mi WSW 4.6 mph - N/A   Clear
2:56 PM 81.0 °F 36.9 °F 21% 29.86 in 10.0 mi South 3.5 mph - N/A   Clear
3:56 PM 81.9 °F 36.9 °F 20% 29.85 in 10.0 mi SSE 4.6 mph - N/A   Clear
4:56 PM 77.0 °F 41.0 °F 28% 29.86 in 10.0 mi SSE 8.1 mph - N/A   Clear
5:56 PM 63.9 °F 47.8 °F 56% 29.87 in 7.0 mi SSE 10.4 mph - N/A   Clear
6:56 PM 61.9 °F 48.9 °F 62% 29.88 in 6.0 mi Calm Calm - N/A   Haze
7:56 PM 61.9 °F 48.9 °F 62% 29.88 in 10.0 mi Variable 3.5 mph - N/A   Clear
9:56 PM 57.9 °F 48.9 °F 72% 29.92 in 3.0 mi Calm Calm - N/A   Haze
10:56 PM 55.9 °F 48.9 °F 77% 29.94 in 9.0 mi Calm Calm - N/A   Clear